FW2402 Weather Reports


time (UTC)temp
F
wind
direction
speed
knots
gust
knots
rain 1hr
in
rain 24hr
in
rain mn
in
humidity
%
barometer
mb
20260906050046 77 196 0.0 3.5 0.00 0.01 0.00 94 1012.6
20260906045522 77 159 0.9 3.5 0.00 0.01 0.00 94 1012.6
20260906045019 77 0 0.0 0.0 0.00 0.01 0.00 94 1012.7
20260906044550 77 0 0.0 0.9 0.00 0.01 0.00 94 1012.7
20260906044021 77 0 0.0 0.9 0.00 0.01 0.00 94 1012.8
20260906043519 77 0 0.0 0.9 0.00 0.01 0.00 94 1012.9
20260906043044 77 0 0.0 1.7 0.00 0.01 0.00 94 1012.8
20260906042518 77 0 0.0 2.6 0.00 0.01 0.00 94 1012.8
20260906042021 77 124 0.0 2.6 0.00 0.01 0.00 94 1012.7
20260906041540 77 260 0.9 2.6 0.00 0.01 0.00 94 1012.7
20260906041027 77 260 0.0 1.7 0.00 0.01 0.00 94 1012.7
20260906040524 78 260 0.0 1.7 0.00 0.01 0.00 94 1012.7
20260906040122 78 260 0.0 2.6 0.00 0.01 0.00 94 1012.6
20260906035522 78 260 0.9 2.6 0.00 0.01 0.01 94 1012.8
20260906035022 78 0 0.0 0.0 0.00 0.01 0.01 94 1012.7
20260906034545 78 0 0.0 0.9 0.00 0.01 0.01 94 1012.8
20260906034025 78 0 0.0 1.7 0.00 0.01 0.01 94 1012.8
20260906033524 78 0 0.9 1.7 0.00 0.01 0.01 94 1012.7
20260906033103 77 0 0.0 1.7 0.00 0.01 0.01 94 1012.7
20260906032523 77 0 0.0 0.0 0.00 0.01 0.01 94 1012.8
20260906032024 77 0 0.0 0.0 0.00 0.01 0.01 94 1012.8
20260906031542 78 0 0.0 0.0 0.00 0.01 0.01 94 1012.8
20260906031021 78 0 0.0 0.0 0.00 0.01 0.01 94 1012.8
20260906030522 78 0 0.0 0.0 0.00 0.01 0.01 93 1012.7
20260906030041 78 0 0.0 0.0 0.00 0.01 0.01 93 1012.6
20260906025524 78 0 0.0 1.7 0.00 0.01 0.01 93 1012.6
20260906025024 78 0 0.0 2.6 0.00 0.01 0.01 93 1012.7
20260906024600 78 0 0.0 2.6 0.00 0.01 0.01 93 1012.5
20260906024027 78 260 0.0 2.6 0.00 0.01 0.01 93 1012.5
20260906023526 78 0 0.0 0.0 0.00 0.01 0.01 93 1012.6
20260906023042 78 0 0.0 0.0 0.00 0.01 0.01 93 1012.6
20260906022523 78 0 0.0 0.0 0.00 0.01 0.01 93 1012.6
20260906022021 78 0 0.0 0.0 0.00 0.01 0.01 93 1012.6
20260906021542 78 0 0.0 0.0 0.00 0.01 0.01 92 1012.5
20260906021018 78 0 0.0 0.0 0.00 0.01 0.01 93 1012.5
20260906020525 78 0 0.0 0.0 0.00 0.01 0.01 93 1012.4
20260906020042 78 0 0.0 0.0 0.00 0.01 0.01 92 1012.4
20260906015521 78 0 0.0 0.0 0.00 0.01 0.01 91 1012.5
20260906015024 79 0 0.0 0.0 0.00 0.01 0.01 91 1012.6
20260906014548 79 0 0.0 0.0 0.00 0.01 0.01 91 1012.6
20260906014025 79 0 0.0 0.0 0.00 0.01 0.01 91 1012.4
20260906013522 80 0 0.0 0.0 0.00 0.01 0.01 90 1012.3
20260906013042 80 0 0.0 0.0 0.00 0.01 0.01 89 1012.2
20260906012522 80 0 0.0 0.0 0.00 0.01 0.01 89 1012.2
20260906012021 80 0 0.0 0.0 0.00 0.01 0.01 89 1012.1
20260906011540 80 0 0.0 0.0 0.00 0.01 0.01 90 1011.8
20260906011023 79 0 0.0 0.9 0.00 0.01 0.01 90 1011.7
20260906010525 80 0 0.0 0.9 0.00 0.01 0.01 90 1011.8
20260906010052 80 0 0.0 0.9 0.00 0.01 0.01 89 1011.8
20260906005525 81 0 0.0 0.9 0.00 0.01 0.01 87 1011.8
20260906005025 81 0 0.0 0.9 0.00 0.01 0.01 86 1011.8
20260906004543 82 0 0.0 2.6 0.00 0.01 0.01 85 1011.9
20260906004026 82 0 0.0 2.6 0.00 0.01 0.01 85 1011.8
20260906003520 82 260 0.9 3.5 0.00 0.01 0.01 85 1011.8
20260906003053 82 260 1.7 3.5 0.00 0.01 0.01 85 1011.8
20260906002518 82 260 1.7 3.5 0.00 0.01 0.01 84 1011.7
20260906002025 83 267 0.9 2.6 0.00 0.01 0.01 83 1011.7
20260906001549 83 0 0.0 5.2 0.00 0.01 0.01 83 1011.6
20260906001025 83 267 1.7 5.2 0.00 0.01 0.01 83 1011.7
20260906000525 83 0 1.7 6.1 0.00 0.01 0.01 82 1011.7
20260906000051 83 268 0.9 6.1 0.00 0.01 0.01 82 1011.5
20260905235524 84 261 3.5 6.1 0.00 0.01 0.01 82 1011.6
20260905235024 84 295 2.6 6.1 0.00 0.01 0.01 81 1011.5
20260905234547 84 286 3.5 6.1 0.00 0.01 0.01 80 1011.6
20260905234023 85 276 2.6 7.0 0.00 0.01 0.01 79 1011.7
20260905233518 85 254 4.3 7.0 0.00 0.01 0.01 78 1011.7
20260905233051 86 272 4.3 7.8 0.00 0.01 0.01 78 1011.6
20260905232524 86 271 3.5 7.8 0.00 0.01 0.01 78 1011.6
20260905232024 86 281 2.6 7.0 0.00 0.01 0.01 78 1011.4
20260905231548 86 250 3.5 7.8 0.00 0.01 0.01 78 1011.4
20260905231024 87 257 3.5 7.8 0.00 0.01 0.01 76 1011.4
20260905230524 87 258 5.2 7.8 0.00 0.01 0.01 75 1011.3
20260905230042 87 281 4.3 7.8 0.00 0.01 0.01 75 1011.5
20260905225523 87 257 5.2 8.7 0.00 0.01 0.01 75 1011.5
20260905225023 88 270 5.2 9.6 0.00 0.01 0.01 74 1011.4
20260905224611 88 275 4.3 11.3 0.00 0.01 0.01 73 1011.5
20260905224025 88 306 6.1 11.3 0.00 0.01 0.01 73 1011.3
20260905223525 88 244 6.1 8.7 0.00 0.01 0.01 73 1011.5
20260905223045 88 281 4.3 8.7 0.00 0.01 0.01 72 1011.5
20260905222524 88 279 5.2 9.6 0.00 0.01 0.01 72 1011.4
20260905222023 89 279 3.5 9.6 0.00 0.01 0.01 70 1011.3
20260905221543 89 271 7.0 10.4 0.00 0.01 0.01 70 1011.3
20260905221023 89 259 6.1 10.4 0.00 0.01 0.01 70 1011.3
20260905220522 89 274 6.1 9.6 0.00 0.01 0.01 70 1011.5
20260905220051 89 263 5.2 9.6 0.00 0.01 0.01 71 1011.5
20260905215526 89 268 2.6 7.8 0.00 0.10 0.01 71 1011.5
20260905215025 89 277 4.3 12.2 0.00 0.10 0.01 71 1011.6
20260905214551 89 269 6.1 12.2 0.00 0.10 0.01 69 1011.6
20260905214024 90 292 7.0 12.2 0.00 0.10 0.01 68 1011.7
20260905213525 90 272 7.0 10.4 0.00 0.10 0.01 70 1011.6
20260905213045 90 294 6.1 10.4 0.00 0.10 0.01 69 1011.5
20260905212530 90 259 7.0 10.4 0.00 0.10 0.01 68 1011.6
20260905212022 90 273 7.0 10.4 0.00 0.10 0.01 70 1011.6
20260905211547 90 276 5.2 9.6 0.00 0.10 0.01 69 1011.6
20260905211018 90 234 3.5 12.2 0.00 0.10 0.01 71 1011.6
20260905210518 90 268 6.1 12.2 0.00 0.10 0.01 70 1011.6
20260905210049 90 281 7.8 11.3 0.00 0.10 0.01 69 1011.5
20260905205524 90 282 5.2 11.3 0.00 0.55 0.01 67 1011.5
20260905205024 90 261 7.0 11.3 0.00 0.55 0.01 68 1011.6
20260905204544 90 267 5.2 9.6 0.00 0.55 0.01 67 1011.6
20260905204024 90 265 6.1 9.6 0.00 0.55 0.01 70 1011.6
20260905203521 90 263 3.5 9.6 0.00 0.55 0.01 69 1011.6
20260905203043 90 267 5.2 11.3 0.00 0.55 0.01 67 1011.5
20260905202522 90 294 5.2 11.3 0.00 0.55 0.01 68 1011.5
20260905202020 90 242 7.8 12.2 0.00 0.55 0.01 67 1011.5
20260905201544 90 269 7.8 12.2 0.00 0.55 0.01 67 1011.6
20260905201018 90 288 7.0 10.4 0.00 0.55 0.01 67 1011.7
20260905200527 90 257 6.1 11.3 0.00 0.55 0.01 66 1011.8
20260905200043 90 261 6.1 11.3 0.00 0.55 0.01 67 1011.7
20260905195523 90 282 6.1 9.6 0.00 0.58 0.01 68 1011.7
20260905195028 90 277 7.0 13.0 0.00 0.58 0.01 68 1011.7
20260905194549 90 218 9.6 13.0 0.00 0.58 0.01 67 1011.7
20260905194021 90 275 8.7 13.0 0.00 0.58 0.01 67 1011.7
20260905193522 90 274 7.8 12.2 0.00 0.58 0.01 69 1011.7
20260905193043 90 285 7.0 13.0 0.00 0.58 0.01 70 1011.7
20260905192519 90 268 7.8 13.0 0.00 0.58 0.01 69 1011.8
20260905192023 90 266 7.8 13.0 0.00 0.58 0.01 70 1011.8
20260905191541 90 248 6.1 11.3 0.00 0.58 0.01 70 1011.9
20260905191021 90 275 6.1 13.9 0.00 0.58 0.01 69 1012.1
20260905190524 89 271 6.1 13.9 0.00 0.58 0.01 69 1012.1
20260905190048 89 268 8.7 14.8 0.00 0.58 0.01 70 1012.1
20260905185523 91 254 8.7 14.8 0.00 0.61 0.01 69 1012.0
20260905185023 90 288 7.0 13.0 0.00 0.61 0.01 69 1012.0
20260905184555 90 261 6.1 13.0 0.00 0.61 0.01 69 1012.0
20260905184021 91 269 8.7 13.0 0.00 0.61 0.01 69 1012.1
20260905183522 91 238 7.0 12.2 0.00 0.61 0.01 72 1012.0
20260905183050 90 243 7.0 11.3 0.00 0.61 0.01 70 1011.9
20260905182525 90 257 4.3 11.3 0.00 0.61 0.01 76 1012.2
20260905182026 90 257 5.2 11.3 0.00 0.61 0.01 73 1012.3
20260905181548 89 277 2.6 7.8 0.00 0.61 0.01 78 1012.4
20260905181023 89 242 0.9 4.3 0.00 0.61 0.01 80 1012.4
20260905180524 87 253 0.9 4.3 0.00 0.61 0.01 82 1012.5
20260905180047 87 242 0.0 4.3 0.00 0.61 0.01 82 1012.5
20260905175518 86 219 0.9 4.3 0.00 0.61 0.01 83 1012.7
20260905175019 85 254 0.0 3.5 0.00 0.61 0.01 83 1012.7
20260905174542 84 229 0.9 3.5 0.00 0.61 0.01 82 1012.5
20260905174018 84 0 0.0 2.6 0.00 0.61 0.01 80 1012.7
20260905173525 84 258 0.0 2.6 0.00 0.61 0.01 80 1012.8
20260905173105 83 0 0.0 1.7 0.00 0.61 0.01 83 1012.9
20260905172524 82 0 0.0 4.3 0.00 0.61 0.01 82 1013.1
20260905172024 82 0 0.0 7.0 0.00 0.61 0.01 80 1013.2
20260905171547 82 209 0.9 11.3 0.00 0.61 0.01 79 1013.3
20260905171023 83 233 1.7 11.3 0.00 0.61 0.01 78 1013.4
20260905170523 84 225 7.0 16.5 0.00 0.61 0.01 78 1013.3
20260905170045 85 247 9.6 16.5 0.00 0.61 0.01 78 1013.3
20260905165519 88 238 2.6 7.8 0.00 0.61 0.01 76 1013.3
20260905165026 89 244 1.7 5.2 0.00 0.61 0.01 77 1013.3
20260905164553 89 0 0.9 7.0 0.00 0.61 0.01 80 1013.5
20260905164025 88 0 2.6 7.0 0.00 0.61 0.01 74 1013.5
20260905163528 88 247 4.3 7.0 0.00 0.61 0.01 78 1013.7
20260905163049 87 268 2.6 7.0 0.00 0.61 0.01 77 1013.7
20260905162523 87 272 0.9 7.0 0.00 0.61 0.01 77 1013.8
20260905162023 87 276 2.6 7.0 0.00 0.61 0.01 78 1013.9
20260905161600 88 251 3.5 9.6 0.00 0.61 0.01 76 1014.0
20260905161022 88 240 5.2 9.6 0.00 0.61 0.01 77 1014.0
20260905160524 87 249 5.2 7.8 0.00 0.61 0.01 78 1014.2
20260905160048 88 266 0.9 7.8 0.00 0.61 0.01 80 1014.2
20260905155528 87 247 4.3 7.8 0.00 0.61 0.01 79 1014.2
20260905155024 86 284 1.7 6.1 0.00 0.61 0.01 81 1014.3
20260905154546 87 248 0.9 8.7 0.00 0.61 0.01 79 1014.1
20260905154032 86 238 3.5 11.3 0.00 0.61 0.01 80 1014.3
20260905153525 87 265 2.6 11.3 0.00 0.61 0.01 77 1014.3
20260905153047 87 251 4.3 11.3 0.00 0.61 0.01 80 1014.1
20260905152523 87 236 3.5 9.6 0.00 0.61 0.01 80 1014.2
20260905152023 87 246 1.7 7.8 0.00 0.61 0.01 80 1014.1
20260905151544 87 0 2.6 7.8 0.00 0.61 0.01 85 1014.4
20260905151020 86 264 4.3 7.8 0.00 0.61 0.01 82 1014.5
20260905150523 86 248 1.7 6.1 0.00 0.61 0.01 83 1014.4
20260905150040 86 292 0.9 7.0 0.00 0.61 0.01 84 1014.4
20260905145525 86 250 3.5 9.6 0.00 0.61 0.01 84 1014.4
20260905145024 85 234 6.1 9.6 0.00 0.61 0.01 83 1014.4
20260905144541 85 267 4.3 8.7 0.00 0.61 0.01 84 1014.3
20260905144025 85 284 5.2 8.7 0.00 0.61 0.01 84 1014.3
20260905143524 85 255 1.7 7.0 0.00 0.61 0.01 87 1014.4
20260905143047 84 250 0.0 7.0 0.00 0.61 0.01 88 1014.4
20260905142522 85 242 1.7 7.0 0.00 0.61 0.01 89 1014.4
20260905142023 84 253 2.6 6.1 0.00 0.61 0.01 88 1014.4
20260905141542 83 243 1.7 5.2 0.00 0.61 0.01 89 1014.4
20260905141026 83 329 0.0 4.3 0.01 0.61 0.01 90 1014.5
20260905140523 83 245 0.9 4.3 0.01 0.61 0.01 90 1014.3
20260905140041 82 238 1.7 3.5 0.01 0.61 0.01 91 1014.4
20260905135525 82 257 1.7 3.5 0.01 0.61 0.01 93 1014.4
20260905135025 82 0 0.0 1.7 0.01 0.61 0.01 93 1014.4
20260905134544 82 0 0.0 1.7 0.01 0.61 0.01 95 1014.3
20260905134025 81 0 0.0 1.7 0.01 0.61 0.01 96 1014.3
20260905133522 80 0 0.0 3.5 0.01 0.61 0.01 96 1014.3
20260905133042 80 0 0.0 4.3 0.01 0.61 0.01 97 1014.4
20260905132523 79 104 0.9 4.3 0.01 0.61 0.01 97 1014.3
20260905132021 79 137 0.9 3.5 0.01 0.61 0.01 97 1014.3
20260905131540 78 0 0.9 3.5 0.01 0.61 0.01 97 1014.1
20260905131024 78 241 0.9 3.5 0.00 0.60 0.00 97 1014.2
20260905130524 78 0 0.0 0.9 0.00 0.60 0.00 97 1014.2
20260905130044 77 106 0.0 1.7 0.00 0.60 0.00 97 1014.2
20260905125526 77 0 0.0 1.7 0.00 0.60 0.00 97 1014.1
20260905125025 78 0 0.0 2.6 0.00 0.60 0.00 97 1014.2
20260905124542 77 0 0.0 3.5 0.00 0.60 0.00 97 1014.2
20260905124023 77 0 0.0 3.5 0.00 0.60 0.00 97 1014.2
20260905123520 77 0 0.0 2.6 0.00 0.60 0.00 97 1014.1
20260905123103 77 175 0.0 1.7 0.00 0.60 0.00 97 1014.1
20260905122525 76 0 0.0 1.7 0.00 0.60 0.00 97 1014.1
20260905122025 76 0 0.0 1.7 0.00 0.60 0.00 97 1014.0
20260905121553 76 0 0.0 0.0 0.00 0.60 0.00 97 1014.2
20260905121025 76 0 0.0 0.0 0.00 0.60 0.00 97 1014.1
20260905120524 76 0 0.0 0.0 0.00 0.60 0.00 97 1014.1
20260905120042 75 0 0.0 0.0 0.00 0.60 0.00 97 1014.0
20260905115526 75 0 0.0 0.0 0.00 0.60 0.00 97 1013.9
20260905115022 75 0 0.0 0.0 0.00 0.60 0.00 97 1013.8
20260905114542 75 0 0.0 0.0 0.00 0.60 0.00 97 1013.8
20260905114024 74 0 0.0 0.0 0.00 0.60 0.00 97 1013.8
20260905113525 74 0 0.0 0.0 0.00 0.60 0.00 97 1013.7
20260905113041 74 0 0.0 0.0 0.00 0.60 0.00 97 1013.6
20260905112525 74 0 0.0 0.0 0.00 0.60 0.00 97 1013.4
20260905112024 74 0 0.0 0.0 0.00 0.60 0.00 97 1013.5
20260905111543 74 0 0.0 0.0 0.00 0.60 0.00 97 1013.5
20260905111024 74 0 0.0 0.0 0.00 0.60 0.00 97 1013.6
20260905110523 74 0 0.0 0.0 0.00 0.60 0.00 97 1013.7
20260905110041 74 0 0.0 0.0 0.00 0.60 0.00 97 1013.6
20260905105518 74 0 0.0 0.0 0.00 0.60 0.00 97 1013.5
20260905105021 74 0 0.0 0.0 0.00 0.60 0.00 97 1013.3
20260905104544 74 0 0.0 0.0 0.00 0.60 0.00 97 1013.3
20260905104024 74 0 0.0 0.0 0.00 0.60 0.00 97 1013.3
20260905103527 74 0 0.0 1.7 0.00 0.60 0.00 97 1013.4
20260905103041 74 0 0.0 1.7 0.00 0.60 0.00 97 1013.4
20260905102525 74 116 0.0 1.7 0.00 0.60 0.00 97 1013.4
20260905102026 74 0 0.0 0.0 0.00 0.60 0.00 97 1013.3
20260905101557 74 0 0.0 0.0 0.00 0.60 0.00 97 1013.3
20260905101022 74 0 0.0 0.0 0.00 0.60 0.00 97 1013.3
20260905100523 74 0 0.0 0.0 0.00 0.60 0.00 97 1013.3
20260905100114 74 0 0.0 0.0 0.00 0.60 0.00 97 1013.2
20260905095526 75 0 0.0 0.0 0.00 0.60 0.00 97 1013.3
20260905095024 74 0 0.0 0.0 0.00 0.60 0.00 97 1013.2
20260905094548 74 0 0.0 0.0 0.00 0.60 0.00 97 1013.2
20260905094024 74 0 0.0 0.0 0.00 0.60 0.00 97 1013.1
20260905093525 74 0 0.0 0.0 0.00 0.60 0.00 97 1013.1
20260905093044 74 0 0.0 0.0 0.00 0.60 0.00 97 1013.1
20260905092526 74 0 0.0 0.0 0.00 0.60 0.00 97 1013.1
20260905092026 74 0 0.0 0.0 0.00 0.60 0.00 97 1013.1
20260905091554 74 0 0.0 0.0 0.00 0.60 0.00 97 1013.0
20260905091021 74 0 0.0 0.0 0.00 0.60 0.00 97 1013.0
20260905090525 74 0 0.0 0.0 0.00 0.60 0.00 97 1013.0
20260905090040 74 0 0.0 0.0 0.00 0.60 0.00 97 1013.0
20260905085527 75 0 0.0 0.0 0.00 0.60 0.00 97 1013.0
20260905085025 75 0 0.0 0.0 0.00 0.60 0.00 97 1012.9
20260905084549 75 0 0.0 0.0 0.00 0.60 0.00 97 1012.8
20260905084024 75 0 0.0 0.0 0.00 0.60 0.00 97 1012.8
20260905083520 75 0 0.0 0.0 0.00 0.60 0.00 97 1012.8
20260905083103 75 0 0.0 0.0 0.00 0.60 0.00 97 1012.8
20260905082523 75 0 0.0 0.0 0.00 0.60 0.00 97 1012.9
20260905082021 75 0 0.0 0.0 0.00 0.60 0.00 97 1012.9
20260905081541 75 0 0.0 0.0 0.00 0.60 0.00 97 1013.0
20260905081021 75 0 0.0 0.0 0.00 0.60 0.00 97 1013.0
20260905080527 75 0 0.0 0.0 0.00 0.60 0.00 97 1013.0
20260905080048 75 0 0.0 0.0 0.00 0.60 0.00 97 1013.0
20260905075523 75 0 0.0 0.0 0.00 0.60 0.00 97 1013.1
20260905075023 75 0 0.0 0.0 0.00 0.60 0.00 97 1013.0
20260905074547 75 0 0.0 0.0 0.00 0.60 0.00 97 1013.1
20260905074021 75 0 0.0 0.0 0.00 0.60 0.00 97 1013.0
20260905073523 75 0 0.0 0.0 0.00 0.60 0.00 97 1013.1
20260905073053 75 0 0.0 0.0 0.00 0.60 0.00 97 1013.0
20260905072523 75 0 0.0 0.0 0.00 0.60 0.00 97 1013.1
20260905072023 75 0 0.0 0.0 0.00 0.60 0.00 97 1013.1
20260905071543 75 0 0.0 0.0 0.00 0.60 0.00 97 1013.1
20260905071020 75 0 0.0 0.0 0.00 0.60 0.00 97 1013.0
20260905070527 75 0 0.0 0.0 0.00 0.60 0.00 97 1013.2
20260905070051 75 0 0.0 0.0 0.00 0.60 0.00 97 1013.3
20260905065525 75 0 0.0 0.0 0.00 0.60 0.00 97 1013.1
20260905065022 75 0 0.0 0.0 0.00 0.60 0.00 97 1013.3
20260905064607 75 0 0.0 0.0 0.00 0.60 0.00 97 1013.4
20260905064020 75 0 0.0 0.0 0.00 0.60 0.00 97 1013.4
20260905063528 75 0 0.0 0.0 0.00 0.60 0.00 97 1013.4
20260905063042 75 0 0.0 0.0 0.00 0.60 0.00 97 1013.4
20260905062519 75 0 0.0 0.0 0.00 0.60 0.00 97 1013.4
20260905062022 75 0 0.0 0.0 0.00 0.60 0.00 97 1013.5
20260905061545 75 0 0.0 0.0 0.00 0.60 0.00 97 1013.5
20260905061021 75 0 0.0 0.0 0.00 0.60 0.00 97 1013.5
20260905060524 75 0 0.0 0.0 0.00 0.60 0.00 97 1013.5
20260905060046 75 0 0.0 0.0 0.00 0.60 0.00 97 1013.6
20260905055522 75 0 0.0 0.0 0.00 0.60 0.00 97 1013.7
20260905055023 75 0 0.0 0.0 0.00 0.60 0.00 97 1013.7
20260905054620 75 0 0.0 0.0 0.00 0.60 0.00 97 1013.7
20260905054023 75 0 0.0 0.0 0.00 0.60 0.00 97 1013.8
20260905053523 76 0 0.0 0.0 0.00 0.60 0.00 97 1013.7
20260905053044 76 0 0.0 0.0 0.00 0.60 0.00 97 1013.8
20260905052523 75 0 0.0 0.0 0.00 0.60 0.00 97 1013.9
20260905052024 76 0 0.0 0.0 0.00 0.60 0.00 97 1013.9
20260905051542 76 0 0.0 0.0 0.00 0.60 0.00 97 1013.9
20260905051024 76 0 0.0 0.0 0.00 0.60 0.00 97 1014.0
20260905050527 76 0 0.0 0.0 0.00 0.60 0.00 97 1014.1